Погода в Каунасе

Погода в Каунасе : погода сейчас, прогноз погоды и архив. Всё, что Вы хотите узнать о погоде в Каунасе!

Поиск расширенной информации на нашем сайте:

Полезная информация:

Другие новости

Новости СМИ2

Главная страница сайта

Новости сайта

03.07.2017

Напоминаем, что на нашем специализированном сайте Метеоцентр.Азия вы можете получить высокодетализированные автоматические прогнозы погоды по пунктам России, СНГ и мира в авиационном формате (включающие направление и скорость ветра, видимость, явления погоды, количество и форму облачности, нижнюю и верхнюю границу облачности).

Рекомендуем:

Погода в Каунасе - сегодня

Время (UTC), дата Ветер
(°,м/с) 
Видим.   Явления Облачность Т
(°С)
Тd
(°С)
f(%) Тe
(°С)
Pmin
(гПа)
dP
(гПа)
Po
(мм)
O2
(г/м3)
Тmin Tmax R s Состояние
почвы
03 19.03.19 220 (ЮЗ) 5-8{10}  20000 м    10/10 700 м 
[Sc]
+2.9 -0.1 81 1012.2  1.1  752  300           
06 19.03.19 220 (ЮЗ) 4-6{08}  19000 м    9/9 420 м 
[Sc]
+3.3 +0.9 84 +1  1013.9  1.7  753  300  +2.3        влажная 
09 19.03.19 270 (З) 6-10{12}  20000 м  в посл. час ливневой дождь  9/8 600 м кучево-дожд., средняя 
[Cb cap|Ac cuf]
+4.2 +0 74 +2  1016.2  2.3  755  300           
12 19.03.19 270 (З) 6-10{14}  18000 м  в посл. час ливневой дождь  9/8 600 м кучево-дожд., средняя 
[Cb cap|Ac cuf]
+5 +1 75 +2  1018.3  2.1  757  299      0.0     
15 19.03.19 290 (З) 5-8{13}  20000 м  слаб. ливневой дождь  9/8 1000 м кучево-дожд., средняя 
[Cb cap|Ac cuf]
+4.8 +0.6 74 +3  1020.4  2.1  758  300           
18 19.03.19 280 (З) 4-6{09}  20000 м  {ливн. осадки}  10/6 960 м средняя 
[Sc|Ac As]
+3.1 +0 80 +1  1023.2  2.7  760  303    +6.2  0.0     
21 19.03.19 280 (З) 4-5{07}  20000 м    10/10 1500 м 
[Sc]
+1.8 +0 88 1024.8  1.5  761  305           
00 20.03.19 280 (З) 3-6{08}  20000 м    10/10 870 м 
[Sc]
+0.9 -1 87 -1  1026.4  1.6  762  306           
03 20.03.19 270 (З) 2-4{06}  19000 м  слаб. снег  10/10 400 м 
[Ns]
+0.6 -1.4 86 1027.3  0.9  763  307           
06 20.03.19 260 (З) 3-5{06}  15000 м  {снег}  10/10 120 м 
[St]
+0.2 -0.4 96 -2  1028.4  1.1  764  308  -0.6    0.0    влажная 
09 20.03.19 270 (З) 4-6{07}  20000 м    9/9 1000 м 
[Cu Sc]
+5.3 -0.6 66 +4  1029  0.7  764  302           
12 20.03.19 270 (З) 5-7{10}  20000 м    9/9 1350 м 
[Sc]
+6.6 -2.1 54 +5  1028.3  -0.6  764  301           
15 20.03.19 260 (З) 6-8{11}  20000 м    10/0 средняя 
[Ac As]
+6.6 -2.1 54 +4  1027.3  -1  763  301           
18 20.03.19 230 (ЮЗ) 5-7{08}  20000 м    10/6 1500 м средняя 
[Sc|Ac trans]
+5.3 -0.8 65 +3  1026.2  -1.1  762  301    +8.1       
21 20.03.19 260 (З) 5-10{12}  20000 м  слаб. дождь  10/10 960 м 
[Ns]
+5.4 +0 68 +3  1024.5  -1.7  761  301           
00 21.03.19 290 (З) 5-6{12}  7000 м  дымка{дождь}  10/10 150 м 
[St]
+4.9 +4.1 95 +3  1024.8  0.3  761  301      0.2     
03 21.03.19 290 (З) 3-4{07}  14000 м  {дождь}  10/10 300 м 
[Sc]
+4.8 +3.4 91 +4  1025.8  0.9  762  301           
06 21.03.19 270 (З) 3-5{07}  7000 м  дымка{дождь}  10/10 120 м 
[St]
+4.3 +3.3 93 +3  1026.9  1.1  763  302  +4.1    0.2    влажная 
09 21.03.19 260 (З) 5-8{08}  13000 м    10/10 150 м 
[Sc]
+4.6 +3.6 93 +2  1028.1  1.2  764  302           
12 21.03.19 270 (З) 5-7{09}  20000 м    10/8 720 м средняя 
[Sc|Ac As]
+8.4 +3.8 73 +7  1026.6  -1.3  763  298           
15 21.03.19 250 (З) 5-8{10}  20000 м    10/8 660 м средняя 
[Sc|Ac As]
+8.2 +4.2 76 +7  1025.2  -1.4  762  297           
18 21.03.19 250 (З) 5-10{10}  5000 м  слаб. дождь{морось}  10/10 180 м 
[Frnb|Ns]
+7.8 +6.6 92 +6  1023.3  -1.9  760  297    +8.7  0.2     
21 21.03.19 290 (З) 6-10{10}  3300 м  слаб. дождь  10/10 120 м 
[Frnb|Ns]
+7.8 +6.9 94 +6  1022.6  -0.7  760  297           
00 22.03.19 280 (З) 6-10{12}  8000 м  дымка{дождь}  10/10 150 м 
[St]
+6.6 +5.6 93 +4  1022.6  -0.1  760  298         
03 22.03.19 310 (СЗ) 5-8{10}  3700 м  дымка  10/10 100 м 
[St]
+6.6 +5.9 95 +5  1023.8  1.2  761  298           
Время (UTC), дата Ветер
(°,м/с) 
Видим.   Явления Облачность Т
(°С)
Тd
(°С)
f(%) Тe
(°С)
Pmin
(гПа)
dP
(гПа)
Po
(мм)
O2
(г/м3)
Тmin Tmax R s Состояние
почвы

Для получения пояснительной информации подведите курсор к названию столбца.

ПОГОДА в Каунасе - архив

Всё, что Вы хотите узнать о погоде в Каунасе - удобно и подробно!

Выберите нужную дату (начиная с 1 января 2018* года) и нажмите кнопку "Найти".
Будут отображены архивные сводки погоды по пункту Каунас, начиная с указанной даты.


Отображать данные в формате CSV (для использования в таблицах Excel)


Внимание! Наш архив погоды предназначен исключительно для личного некоммерческого использования в познавательных целях. Если Вам необходимы официальные справки о состоянии погоды (для производственных, юридических, коммерческих и т.п. целей), обращайтесь в органы Росгидромета.

*Примечание: данная дата относится к архиву по метеостанциям СССР (Россия, СНГ, Балтия).
Архив по метеостанциям Зарубежной Европы и Азии (кроме Китая) хранится 10 дней, по другим регионам земного шара (Китай, Африка, Америка, Австралия, Океания) - 1 день.

Каунас - район местоположения метеостанции


Название, широта, долгота, высота метеостанции:
Каунас 54.9°ш. 23.8°д. 77 м над ур. моря [Литва]

Дополнительная информация

В oтличие oт бoльшинства пoгoдных сайтoв мы публикуем пoдрoбную метеoинфoрмацию в детальнoм прoфессиoнальнoм фoрмате.

Характеристики температуры и влажнoсти вoздуха измеряются на высoте 2 м в тени вдали oт зданий и деревьев.
Скoрoсть ветра измеряется на высoте 10 м (на урoвне рoста челoвека скoрoсть ветра ниже в 1.5-2 раза). Если метеoстанция нахoдится в гoрoде или в лесу, тo скoрoсть ветра занижена на 2-4 м/с пo сравнению с oткрытым местoм. Скoрoсть ветра над акватoриями крупных рек и oзёр, а также на вершинах хoлмoв на 2-5 м/с выше, чем в oбычных услoвиях.
Атмoсфернoе давление в разных тoчках местнoсти мoжет значительнo oтличаться oт давления на метеoстанции, в зависимoсти oт услoвий рельефа (при пoдъёме на 10 м давление пoнижается примернo на 1 мм рт.ст.).